Worcester, MA

11:41 PM EDT on September 19, 2019 (GMT -0400)
Worcester Regional

Weather History for KORH - August, 2019

Change the Weather History Date:

Saturday, August 24, 2019

  Actual Average Record
Temperature  
Mean Temperature 64 °F 68 °F  
Max Temperature 72 °F 76 °F 92 °F (1947)
Min Temperature 55 °F 60 °F 44 °F (1971)
Degree Days  
Heating Degree Days 2 1  
Month to date heating degree days 1 15  
Since 1 June heating degree days 53 112  
Since 1 July heating degree days 2 29  
Cooling Degree Days 0 4  
Month to date cooling degree days 143 120  
Year to date cooling degree days 499 401  
Since 1 June cooling degree days 490 379  
Growing Degree Days 14 (Base 50)    
Moisture  
Dew Point 51 °F    
Average Humidity 65    
Maximum Humidity 93    
Minimum Humidity 49    
Precipitation  
Precipitation 0.00 in 0.11 in 2.62 in (1927)
Month to date precipitation 2.14 2.96  
Year to date precipitation 33.66 30.61  
Sea Level Pressure  
Sea Level Pressure 30.19 in    
Wind  
Wind Speed 7 mph ()    
Max Wind Speed 14 mph    
Max Gust Speed 18 mph    
Visibility 10.0 miles    
Events      
T = Trace of Precipitation, MM = Missing Value Source: Averaged Metar Reports

Daily Weather History Graph

Daily Weather History Graph

Search for Another Location

Airport or City:

Astronomy

Aug. 24, 2019 Rise Set
Actual Time 6:04 AM EDT 7:34 PM EDT
Civil Twilight 5:34 AM EDT 8:04 PM EDT
Nautical Twilight 4:59 AM EDT 8:39 PM EDT
Astronomical Twilight 4:21 AM EDT 9:17 PM EDT
Moon No Moon Rise 2:50 PM EDT (8/24)
Length of Visible Light 14h 29m
Length of Day
13h 30m
Last Quarter, 39% of the Moon is Illuminated
Aug 24
Last Quarter
Aug 30
New
Sep 5
First Quarter
Sep 14
Full
Sep 21
Last Quarter

Hourly Weather History & Observations

Time (EDT) Temp. Dew Point Humidity Pressure Visibility Wind Dir Wind Speed Gust Speed Precip Events Conditions
12:54 AM 61.0 °F 48.0 °F 62% 30.08 in 10.0 mi NNW 10.4 mph - N/A   Clear
1:54 AM 60.1 °F 48.0 °F 64% 30.10 in 10.0 mi NNW 8.1 mph - N/A   Clear
2:54 AM 59.0 °F 48.0 °F 67% 30.10 in 10.0 mi NNW 9.2 mph - N/A   Clear
3:54 AM 57.9 °F 46.9 °F 67% 30.09 in 10.0 mi NNW 10.4 mph - N/A   Clear
4:54 AM 57.0 °F 46.9 °F 69% 30.10 in 10.0 mi NW 9.2 mph - N/A   Clear
5:54 AM 57.0 °F 46.9 °F 69% 30.12 in 10.0 mi NNW 10.4 mph - N/A   Clear
6:54 AM 57.0 °F 46.9 °F 69% 30.14 in 10.0 mi NW 8.1 mph - N/A   Clear
7:54 AM 59.0 °F 48.0 °F 67% 30.16 in 10.0 mi NW 8.1 mph - N/A   Clear
8:54 AM 62.1 °F 48.9 °F 62% 30.16 in 10.0 mi North 10.4 mph - N/A   Clear
9:54 AM 63.0 °F 50.0 °F 63% 30.17 in 10.0 mi North 8.1 mph - N/A   Clear
10:54 AM 64.9 °F 51.1 °F 61% 30.18 in 10.0 mi Variable 3.5 mph - N/A   Clear
11:54 AM 68.0 °F 48.9 °F 50% 30.18 in 10.0 mi North 9.2 mph - N/A   Clear
12:54 PM 69.1 °F 51.1 °F 53% 30.18 in 10.0 mi Variable 4.6 mph - N/A   Scattered Clouds
1:54 PM 70.0 °F 51.1 °F 51% 30.19 in 10.0 mi Variable 6.9 mph - N/A   Mostly Cloudy
2:54 PM 70.0 °F 51.1 °F 51% 30.19 in 10.0 mi NE 8.1 mph - N/A   Overcast
3:54 PM 70.0 °F 52.0 °F 53% 30.20 in 10.0 mi NE 8.1 mph - N/A   Mostly Cloudy
4:54 PM 70.0 °F 53.1 °F 55% 30.20 in 10.0 mi NNE 6.9 mph - N/A   Overcast
5:54 PM 66.9 °F 54.0 °F 63% 30.22 in 10.0 mi Variable 5.8 mph - N/A   Mostly Cloudy
6:54 PM 66.0 °F 55.0 °F 68% 30.24 in 10.0 mi ENE 8.1 mph - N/A   Mostly Cloudy
7:54 PM 63.0 °F 55.0 °F 75% 30.26 in 10.0 mi East 4.6 mph - N/A   Clear
8:54 PM 62.1 °F 54.0 °F 75% 30.29 in 10.0 mi East 4.6 mph - N/A   Mostly Cloudy
9:54 PM 60.1 °F 54.0 °F 80% 30.31 in 10.0 mi East 3.5 mph - N/A   Scattered Clouds
10:54 PM 59.0 °F 54.0 °F 83% 30.32 in 10.0 mi ENE 3.5 mph - N/A   Clear
11:54 PM 57.9 °F 55.0 °F 90% 30.32 in 10.0 mi NNE 5.8 mph - N/A   Clear